Regional Weather Roundup
Issued by NWS

Home | Current Version | Previous Version | Text Only | Print | Product List | Glossary On
Versions: 1 2 3 4 5 6 7 8 9 10 11 12 13 14 15 16 17 18 19 20 21 22 23 24 25 26 27 28 29 30 31 32 33 34 35 36 37 38 39 40 41 42 43 44 45 46 47 48 49 50
000
ASUS46 KLOX 031212
RWRCA

SOUTHERN CALIFORNIA WEATHER ROUNDUP
NATIONAL WEATHER SERVICE OXNARD CALIFORNIA
400 AM PST TUE MAR 03 2015

NOTE: "FAIR" INDICATES FEW OR NO CLOUDS BELOW 12,000 FEET WITH NO
SIGNIFICANT WEATHER AND/OR OBSTRUCTIONS TO VISIBILITY.

  -  STATIONS PRECEEDED BY AN ASTERISK (*) ARE NOT NWS OR FAA
     STATIONS AND ARE NOT SUBJECT TO NWS AND FAA QUALITY CONTROL.

CAZ041-042-087-031300-
LA AND ORANGE COUNTY COASTAL AREAS


CITY           SKY/WX    TMP DP  RH WIND       PRES   REMARKS
L.A. DOWNTOWN  CLEAR     51  42  71 CALM      29.92F
L.A. AIRPORT   PTCLDY    48  43  82 NE5       29.93F
LONG BEACH     CLEAR     48  42  80 CALM      29.92F

CITY           SKY/WX    TMP DP  RH WIND       PRES   REMARKS
AVALON           N/A     46 N/A N/A MISG        N/A
FULLERTON      CLEAR     49  41  74 E6        29.92F
*GETTY CENTER    N/A    N/A N/A N/A N6G12       N/A
HAWTHORNE      CLEAR     50  44  80 CALM      29.93F
*LEO CARRILLO    N/A     47  43  87 N7          N/A
*LOS ALAMITOS  FAIR      46  42  86 NE6       29.92F
*REDONDO BEACH   N/A     47  44  88 CALM      29.93F
SANTA ANA      PTCLDY    51  40  65 NE3       29.92F
STA MONICA APT CLEAR     50  45  83 N3        29.93F
*UCLA            N/A     46  43  87 N8        29.90S

$$

CAZ547-548-048-031300-
LA COUNTY VALLEYS AND INLAND EMPIRE


CITY           SKY/WX    TMP DP  RH WIND       PRES   REMARKS
BURBANK        CLEAR     45  39  79 CALM      29.92F
VAN NUYS       CLEAR     46  42  86 NW3       29.93S

CITY           SKY/WX    TMP DP  RH WIND       PRES   REMARKS
CORONA AIRPORT SUNNY     38  38 100 CALM      29.94F
*CHATSWORTH      N/A     44  42  90 CALM      29.96S
CHINO          CLEAR     41  39  93 CALM      29.94F
*CLAREMONT       N/A     40  37  87 CALM        N/A
MARCH AFB      CLEAR     32  32 100 CALM      29.92F
*NORTHRIDGE      N/A     45  41  87 N1          N/A
ONTARIO        PTCLDY    44  38  79 E3        29.93S
*PASADENA        N/A     46  41  81 CALM        N/A
RIVERSIDE      CLEAR     42  38  85 NE3       29.93F
SAN BERNARDINO NOT AVBL
*SAN RAFAEL HI   N/A     45  40  81 W2          N/A
*SAUGUS          N/A     41  41 100 N2          N/A
*WHITEMAN AP   NOT AVBL
*WHITTIER HILL   N/A     45  41  87 NE12        N/A
*WOODLAND HILL   N/A     43  41  93 SE1         N/A

$$

CAZ054-055-031300-
LA AND SAN BERNARDINO COUNTY MOUNTAINS


CITY           SKY/WX    TMP DP  RH WIND       PRES   REMARKS
*ACTON           N/A     36  36  99 NE3         N/A
*BIG BEAR AIRP SNOW      14  12  92 CALM      29.89S VSB 1/2
*BIG PINES       N/A     23  20  90 CALM        N/A
*CHILAO          N/A     32  25  74 N5          N/A  WCI  27
MT WILSON NWS    N/A     28  27  93 MISG        N/A
SANDBERG       FOG       37  33  85 N15       29.91F VSB 3/4 WCI  28
*WARM SPRINGS    N/A     36  35  98 W7          N/A  WCI  30

$$

CAZ028-029-059-060-099-031300-
ANTELOPE VALLEY AND SURROUNDING AREAS


CITY           SKY/WX    TMP DP  RH WIND       PRES   REMARKS
LANCASTER      PTCLDY    35  32  88 CALM      29.94R
PALMDALE       PTCLDY    33  32  96 SE3       29.94R
*POPPY PARK      N/A     34  31  88 NW5         N/A  WCI  30

CITY           SKY/WX    TMP DP  RH WIND       PRES   REMARKS
29 PALMS       CLEAR     41  34  76 W5        29.99S
BARSTOW/DAGGET PTCLDY    42  35  76 SW8       29.93F
BISHOP         PTCLDY    26  19  74 N6        29.93S WCI  19
CHINA LAKE     CLEAR     34  31  88 CALM      29.93S
EDWARDS AFB    PTCLDY    35  32  86 NE2       29.92S
MOJAVE         FAIR      36  34  93 N5        29.93S WCI  32
NEEDLES        CLEAR     47  42  83 W3        29.93S
VICTORVILLE      N/A     34  30  86 NW3       29.93R

$$

CAZ039-040-031300-
VENTURA AND SANTA BARBARA COUNTY COAST


CITY           SKY/WX    TMP DP  RH WIND       PRES   REMARKS
CAMARILLO      PTCLDY    47  42  83 N7        29.94S
OXNARD AIRPORT PTCLDY    49  43  80 NE9       29.94S
*POINT MUGU    PTCLDY    51  45  79 N5        29.94F
SBA APT/GOLETA CLEAR     44  41  89 CALM      29.94F
*SANTA BARBARA   N/A     46  40  78 CALM      30.02S
*VENTURA         N/A     48  42  77 CALM      29.99S

$$

CAZ044-045-031300-
VENTURA COUNTY VALLEYS


CITY           SKY/WX    TMP DP  RH WIND       PRES   REMARKS
*SIMI VALLEY     N/A     46  42  86 CALM      29.94S
*OJAI            N/A     36  34  93 CALM      29.93S
*FILLMORE        N/A     43  40  91 CALM      29.86R

$$

CAZ053-031300-
VENTURA COUNTY MOUNTAINS


CITY           SKY/WX    TMP DP  RH WIND       PRES   REMARKS
*LOCKWOOD VLY    N/A     25  25 100 MISG        N/A
*ROSE VALLEY     N/A     32  34 100 MISG        N/A

$$

CAZ034-035-036-031300-
CENTRAL COAST AND SANTA YNEZ VALLEY


CITY           SKY/WX    TMP DP  RH WIND       PRES   REMARKS
SAN LUIS OBISP CLEAR     39  38  96 SE3       29.96F
SANTA MARIA    CLEAR     40  37  89 CALM      29.96F

CITY           SKY/WX    TMP DP  RH WIND       PRES   REMARKS
*CAL POLY SLO    N/A     39  39 100 CALM        N/A
*LOMPOC        CLEAR     37  34  87 E6        29.96S WCI  33
*PISMO BEACH     N/A     42  39  92 NE6       29.97S
*SANTA YNEZ    FAIR      36  34  93 E3        29.95F

$$

CAZ037-038-051-031300-
SAN LUIS OBISPO COUNTY INTERIOR AND CUYAMA VALLEY


CITY           SKY/WX    TMP DP  RH WIND       PRES   REMARKS
*CUYAMA          N/A     37  34  90 CALM      29.97F
PASO ROBLES    PTCLDY    37  34  89 CALM      29.98S

$$

CAZ032-033-061-031300-
SOUTHERN DESERTS


CITY           SKY/WX    TMP DP  RH WIND       PRES   REMARKS
BLYTHE         CLEAR     45  44  97 N7        29.92S
IMPERIAL       CLEAR     46  41  82 S3        29.91F
PALM SPRINGS   CLEAR     47  39  74 N8        29.93S
THERMAL        CLEAR     42  38  85 CALM      29.91S

$$

ELSEWHERE ACROSS THE WESTERN UNITED STATES AND MEXICO


CITY           SKY/WX    TMP DP  RH WIND       PRES   REMARKS
DENVER, CO     PTCLDY    38  16  40 W24G32    29.65R WCI  27
GRAND CANYON,  FOG       25  24  96 CALM      29.90F VSB 1/2
HONOLULU, HI   PTCLDY    73  64  73 N5        30.02F
KAHULUI, MAUI  CLEAR     73  68  83 NE10      30.02F
LAKE TAHOE, CA PTCLDY    24  16  71 S5        29.93F WCI  18
LAS VEGAS, NV  CLEAR     43  35  73 SW5       29.88S
MAMMOTH LAKES, FAIR      19  18  93 CALM      29.92S
MEXICO CITY, M CLEAR     48  39  71 NE5       30.30R
PHOENIX, AZ    MOCLDY    51  47  86 CALM      29.90F
PORTLAND, OR   CLEAR     34  32  92 CALM      30.19R
RENO, NV       MOCLDY    37  29  72 S3        29.95S
SALT LAKE CITY LGT RAIN  35  32  88 N3        29.79S
SAN DIEGO, CA  MOCLDY    52  42  69 NE7       29.93F
SAN FRANCISCO, CLEAR     49  46  90 SW5       29.99F
SAN JOSE, CA   CLEAR     41  37  86 E3        30.00S
SEATTLE, WA    CLEAR     34  30  85 VRB3      30.21R
TIJUANA, MEX   MOCLDY    50  45  81 E5        29.94F

$$

STATION/POSITION TIME  TEMP    WIND        PRES    VSBY  WAVE
                       AIR SEA DIR/SP/G                  HT/PER
                 (UTC) (F)     (DEG/KT/KT) (MB)    (MI)  (FT/S)
POINT ARGUELLO B NOT AVBL
WEST SANTA BARBA 1200   56 58   60/ 10/ 12 1013.3F         6/11
POINT CONCEPTION NOT AVBL
EAST SANTA BARBA NOT AVBL
SANTA MONICA BAY 1200   57 62   80/ 14/ 16 1013.3F         3/ 4



USA.gov is the U.S. government's official web portal to all federal, state and local government web resources and services.